Location: *
(40.8568°S, 106.5304°E)
Time: 03:27:40
(UTC+00:00)

Daily predictions for brighter satellites

Satellite Brightness Start Highest point End
(mag) Time Altitude Azimuth Time Altitude Azimuth Time Altitude Azimuth
Cosmos 1833 Rocket 3.0 09:58:10 10° NNW 10:03:49 73° WSW 10:09:33 10° SSE
Cosmos 1992 Rocket 4.3 10:00:12 10° N 10:05:13 48° ENE 10:10:16 10° SSE
SeaSat 1 4.0 10:02:35 10° S 10:07:01 33° SW 10:11:25 10° WNW
Cosmos 1076 Rocket 3.6 10:03:17 10° N 10:07:35 59° E 10:11:55 10° SSE
CZ-2C R/B 4.2 10:05:47 10° NNW 10:11:04 42° W 10:16:21 10° SSW
Cosmos 2173 Rocket 4.1 10:08:33 10° S 10:14:52 57° E 10:20:59 10° NNE
Cosmos 2016 Rocket 4.5 10:11:46 10° S 10:17:36 38° ESE 10:23:25 10° NE
Cosmos 1812 3.6 10:15:10 10° SSE 10:18:37 29° ESE 10:22:00 10° NE
CZ-4B R/B 4.1 10:16:46 10° SSE 10:21:15 80° ENE 10:25:32 10° N
Cosmos 1727 Rocket 4.3 10:15:58 10° NNW 10:22:12 72° W 10:28:28 10° S
Cosmos 2221 3.4 10:20:29 10° SSW 10:24:52 56° W 10:29:10 10° N
CZ-4B R/B 4.1 10:23:02 10° SE 10:26:01 21° E 10:29:04 10° NNE
Cosmos 968 Rocket 3.9 10:22:55 10° SSW 10:28:14 71° WNW 10:33:26 10° N
Meteor 2-3 Rocket 3.8 10:22:57 10° N 10:28:35 90° WSW 10:34:20 10° S
SJ 16-02 2.9 10:26:11 10° SSE 10:28:58 16° ESE 10:31:02 12° E
Cosmos 1842 Rocket 4.0 10:25:30 10° SSW 10:29:57 66° W 10:34:19 10° N
SKYMED 2 4.5 10:27:44 10° N 10:32:00 54° W 10:36:21 10° SSW
GENESIS II 4.0 10:30:22 10° SSW 10:34:07 86° SE 10:37:49 10° NNE
USA 306 3.0 10:31:05 10° SW 10:35:14 54° SE 10:39:22 10° ENE
Cosmos 1802 Rocket 4.1 10:31:22 10° S 10:37:51 67° E 10:44:16 10° NNE
Cosmos 1459 Rocket 4.0 10:31:46 10° S 10:38:02 83° E 10:44:20 10° N
ARGOS 4.5 10:35:27 13° SE 10:38:15 19° E 10:42:01 10° NE
ERBS 3.9 10:37:01 10° S 10:39:03 16° SSE 10:39:17 16° SE
Cosmos 1503 Rocket 4.4 10:34:27 10° S 10:39:22 39° ESE 10:44:13 10° NE
RESURS DK-1 2.5 10:35:54 10° SSW 10:40:00 51° ESE 10:44:04 10° NE
USA 307 3.0 10:36:29 10° SW 10:40:38 52° SE 10:44:18 13° ENE
CZ-2C R/B 4.1 10:36:59 10° S 10:41:35 43° WSW 10:46:17 10° NW
Cosmos 1980 Rocket 2.1 10:41:42 10° SSW 10:47:22 77° ESE 10:52:59 10° NNE
CZ-2C R/B 2.4 10:44:12 10° WNW 10:47:43 32° N 10:50:15 15° ENE
USA 281 3.7 10:42:28 10° SE 10:48:42 41° ENE 10:54:51 10° N
Meteor 2-6 Rocket 4.5 10:43:54 10° S 10:49:15 43° ESE 10:54:25 10° NNE
DELTA 2 R/B (1) 3.8 10:44:25 10° WNW 10:49:59 65° NNE 10:53:53 20° E
Cosmos 1862 3.5 10:46:17 10° NNE 10:50:07 48° E 10:54:01 10° SSE
Cosmos 2100 Rocket 4.3 10:44:58 10° SSW 10:51:18 72° W 10:57:26 10° N
ATLAS 2AS CENTAUR R/B 3.8 10:45:22 10° SW 10:52:16 52° WNW 10:59:32 10° N
Cosmos 1766 Rocket 4.3 10:51:09 10° NNE 10:54:56 29° E 10:56:28 23° SE
Cosmos 2322 Rocket 3.4 10:52:38 10° S 10:56:49 20° SE 10:57:00 20° SE
Aureole 1 Rocket 3.9 10:50:24 10° SSW 10:57:28 89° WNW 11:02:47 10° NNE
Cosmos 2082 Rocket 2.6 10:53:03 10° NW 10:58:38 62° WSW 11:04:16 10° SSE
Meteor 1-31 Rocket 4.4 10:57:38 10° S 11:01:17 35° WSW 11:04:52 10° NW
Cosmos 2084 3.7 10:58:12 10° NNW 11:03:01 89° ENE 11:06:15 21° SE
H-2A R/B 2.0 10:58:13 10° SSE 11:03:09 58° E 11:08:01 10° N
Cosmos 2369 4.1 10:57:44 10° SSW 11:03:26 69° WNW 11:09:04 10° NNE
Lacrosse 5 3.3 10:59:45 10° SSW 11:03:35 21° SSE 11:04:25 20° SE
Cosmos 1697 Rocket 4.3 10:59:36 10° SW 11:04:48 38° WNW 11:09:59 10° N
Cosmos 2151 4.4 11:01:29 10° NNW 11:05:34 41° WSW 11:09:44 10° S
USA 308 2.8 11:07:21 10° SW 11:11:37 88° SE 11:14:03 24° NE
ADEOS 3.8 11:08:37 10° S 11:13:55 75° WSW 11:19:09 10° NNW
Cosmos 2123 Rocket 4.3 11:08:56 10° NNW 11:15:16 71° W 11:21:41 10° S
CORIOLIS 4.1 11:10:41 10° SSE 11:16:12 67° ENE 11:21:38 10° N
Landsat 5 4.1 11:14:57 10° N 11:19:22 60° WNW 11:23:43 10° SSW
USA 215 3.2 11:15:58 18° ENE 11:21:01 69° SE 11:27:36 10° SW
Cosmos 1725 Rocket 4.2 11:14:43 10° S 11:21:02 77° W 11:27:19 10° N
Cosmos 2061 Rocket 4.1 11:15:05 10° S 11:21:31 80° W 11:27:48 10° N
AQUARIUS 4.1 11:18:24 16° SSE 11:22:07 80° ENE 11:26:38 10° N
IRIDIUM 103 4.3 11:18:35 10° NNE 11:23:42 56° E 11:28:54 10° S
SAR-Lupe-3 4.4 11:23:59 49° SSE 11:24:55 83° ENE 11:28:33 10° NNW
USA 305 3.7 11:28:34 10° WSW 11:32:39 49° NW 11:35:00 23° NNE
NOAA 6 3.9 11:30:47 17° SSE 11:34:54 86° E 11:40:03 10° NNW
Lacrosse 5 rocket 3.6 11:33:59 10° SSW 11:34:42 13° S 11:34:42 13° S
SL-16 R/B 2.2 11:33:01 10° SSW 11:38:39 54° ESE 11:39:15 51° E
Cosmos 1777 Rocket 3.8 11:36:23 10° SSW 11:41:40 72° ESE 11:43:42 38° NE
IRIDIUM 106 4.2 11:36:43 10° N 11:41:58 83° E 11:47:18 10° S
GEOS 3 Rocket 3.9 11:42:21 48° ENE 11:42:21 48° ENE 11:47:20 10° NNW
SMAP 3.9 11:40:14 10° S 11:44:49 51° WSW 11:49:21 10° NNW
Cosmos 1151 Rocket 3.4 11:42:12 10° SSW 11:46:36 63° W 11:50:54 10° N
Cosmos 1932 4.4 11:40:16 10° NNW 11:46:41 66° ENE 11:48:09 52° ESE
Cosmos 1354 Rocket 4.4 11:43:06 10° SSW 11:48:20 62° WNW 11:53:30 10° N
ATLAS CENTAUR R/B 3.8 11:52:08 10° NNW 11:54:09 20° N 11:54:09 20° N
